This is the latest recevied weather packets stored in our database for station/object KG6QHD-13. If no packets are shown the sender has not sent any weather packets the latest 10 day(s).
| Time | Temp. | Humidity | Pressure | Rain* | Wind** | Luminosity | Snow |
|---|---|---|---|---|---|---|---|
| 1777937748 | 14.44° C | 32% | 1011.7 hPa | 0 mm | - | 107 W/m² | - |
| 1777936845 | 15° C | 32% | 1011.7 hPa | 0 mm | - | 165 W/m² | - |
| 1777934752 | 15° C | 30% | 1011.4 hPa | 0 mm | - | 364 W/m² | - |
| 1777934147 | 15° C | 29% | 1011.6 hPa | 0 mm | - | 251 W/m² | - |
| 1777933857 | 15° C | 30% | 1011.6 hPa | 0 mm | - | 241 W/m² | - |
| 1777933252 | 15.56° C | 29% | 1011.5 hPa | 0 mm | - | 221 W/m² | - |
| 1777931747 | 15.56° C | 27% | 1011.4 hPa | 0 mm | - | 135 W/m² | - |
| 1777928148 | 16.11° C | 28% | 1011.3 hPa | 0 mm | - | 220 W/m² | - |
| 1777926348 | 17.22° C | 25% | 1011.5 hPa | 0 mm | - | 216 W/m² | - |
| 1777926047 | 17.78° C | 25% | 1011.4 hPa | 0 mm | - | 227 W/m² | - |
| 1777925148 | 18.89° C | 23% | 1011 hPa | 0 mm | - | 1007 W/m² | - |
| 1777923348 | 17.78° C | 21% | 1011.5 hPa | 0 mm | - | 865 W/m² | - |
| 1777922449 | 17.22° C | 21% | 1011.7 hPa | 0 mm | - | 338 W/m² | - |
| 1777922159 | 17.78° C | 22% | 1011.7 hPa | 0 mm | - | 1134 W/m² | - |
| 1777920048 | 17.22° C | 20% | 1011.8 hPa | 0 mm | - | 1143 W/m² | - |
| 1777919749 | 17.22° C | 19% | 1012 hPa | 0 mm | - | 271 W/m² | - |
| 1777919148 | 16.67° C | 21% | 1012.4 hPa | 0 mm | - | 334 W/m² | - |
| 1777918848 | 17.22° C | 18% | 1012.5 hPa | 0 mm | - | 283 W/m² | - |
| 1777917649 | 18.33° C | 19% | 1012.4 hPa | 0 mm | - | 1055 W/m² | - |
| 1777916753 | 16.67° C | 20% | 1013 hPa | 0 mm | - | 388 W/m² | - |
| 1777915546 | 17.78° C | 21% | 1013 hPa | 0 mm | - | 1151 W/m² | - |
| 1777915247 | 17.22° C | 23% | 1013.2 hPa | 0 mm | - | 812 W/m² | - |
| 1777914957 | 17.22° C | 23% | 1013.3 hPa | 0 mm | - | 823 W/m² | - |
| 1777914347 | 16.67° C | 23% | 1013.3 hPa | 0 mm | - | 893 W/m² | - |
| 1777914052 | 16.67° C | 25% | 1013.3 hPa | 0 mm | - | 809 W/m² | - |
* Rain latest hour (hover to see other rain measurements)
** Current wind speed in m/s (hover to see current wind gust speed)